Lincoln, CA

6:09 PM PST on December 15, 2017 (GMT -0800)
Lincoln Regional-Harder

Weather History for KLHM - October, 2013

Change the Weather History Date:

Monday, October 7, 2013

  Actual Average (KAUN) Record (KAUN)
Temperature  
Mean Temperature 63 °F -  
Max Temperature 84 °F 79 °F 95 °F (1953)
Min Temperature 42 °F 53 °F 41 °F (1949)
Degree Days  
Heating Degree Days 2    
Growing Degree Days 13 (Base 50)    
Moisture  
Dew Point 31 °F    
Average Humidity 34    
Maximum Humidity 70    
Minimum Humidity 11    
Precipitation  
Precipitation 0.00 in - - ()
Sea Level Pressure  
Sea Level Pressure 29.92 in    
Wind  
Wind Speed 4 mph (NNE)    
Max Wind Speed 7 mph    
Max Gust Speed -    
Visibility 10 miles    
Events      
Averages and records for this station are not official NWS values.
T = Trace of Precipitation, MM = Missing Value Source: NWS Daily Summary

Daily Weather History Graph

Daily Weather History Graph

Search for Another Location

Airport or City:

Trip Planner

Search our weather history database for the weather conditions in past years. The results will help you decide how hot, cold, wet, or windy it might be!

Date:

Astronomy

Oct. 07, 2013 Rise Set
Actual Time 7:07 AM PDT 6:38 PM PDT
Civil Twilight 6:40 AM PDT 7:04 PM PDT
Nautical Twilight 6:09 AM PDT 7:35 PM PDT
Astronomical Twilight 5:38 AM PDT 8:06 PM PDT
Moon 10:01 AM PDT (10/7) 8:29 PM PDT (10/7)
Length of Visible Light 12h 24m
Length of Day
11h 30m
Waxing Crescent, 9% of the Moon is Illuminated
Oct 7
Waxing Crescent
Oct 11
First Quarter
Oct 18
Full
Oct 26
Last Quarter
Nov 3
New

Hourly Weather History & Observations

Time (PDT) Temp. Dew Point Humidity Pressure Visibility Wind Dir Wind Speed Gust Speed Precip Events Conditions
12:15 AM 55.4 °F 33.8 °F 44% 29.98 in 10.0 mi ENE 6.9 mph - N/A   Clear
12:35 AM 57.2 °F 33.8 °F 41% 29.98 in 10.0 mi ENE 5.8 mph - N/A   Clear
12:55 AM 55.4 °F 32.0 °F 41% 29.98 in 10.0 mi East 6.9 mph - N/A   Clear
1:15 AM 55.4 °F 32.0 °F 41% 29.98 in 10.0 mi East 5.8 mph - N/A   Clear
1:35 AM 53.6 °F 32.0 °F 44% 29.98 in 10.0 mi East 6.9 mph - N/A   Clear
1:55 AM 53.6 °F 32.0 °F 44% 29.98 in 10.0 mi East 5.8 mph - N/A   Clear
2:15 AM 53.6 °F 32.0 °F 44% 29.97 in 10.0 mi ENE 4.6 mph - N/A   Clear
2:35 AM 53.6 °F 32.0 °F 44% 29.97 in 10.0 mi East 5.8 mph - N/A   Clear
2:55 AM 53.6 °F 32.0 °F 44% 29.97 in 10.0 mi East 6.9 mph - N/A   Clear
3:15 AM 53.6 °F 32.0 °F 44% 29.96 in 10.0 mi East 6.9 mph - N/A   Clear
3:35 AM 51.8 °F 32.0 °F 47% 29.96 in 10.0 mi ENE 6.9 mph - N/A   Clear
3:55 AM 51.8 °F 32.0 °F 47% 29.96 in 10.0 mi ENE 5.8 mph - N/A   Clear
4:15 AM 53.6 °F 32.0 °F 44% 29.95 in 10.0 mi East 6.9 mph - N/A   Clear
4:35 AM 51.8 °F 32.0 °F 47% 29.95 in 10.0 mi NE 3.5 mph - N/A   Clear
4:55 AM 48.2 °F 32.0 °F 54% 29.95 in 10.0 mi NW 5.8 mph - N/A   Clear
5:15 AM 48.2 °F 33.8 °F 58% 29.95 in 10.0 mi NNW 4.6 mph - N/A   Clear
5:35 AM 48.2 °F 33.8 °F 58% 29.96 in 10.0 mi NW 4.6 mph - N/A   Clear
5:55 AM 48.2 °F 33.8 °F 58% 29.96 in 10.0 mi NNW 3.5 mph - N/A   Clear
6:15 AM 48.2 °F 33.8 °F 58% 29.95 in 10.0 mi NNW 5.8 mph - N/A   Clear
6:35 AM 46.4 °F 33.8 °F 62% 29.96 in 10.0 mi Calm Calm - N/A   Clear
6:55 AM 46.4 °F 33.8 °F 62% 29.96 in 10.0 mi Calm Calm - N/A   Clear
7:15 AM 46.4 °F 33.8 °F 62% 29.95 in 10.0 mi Calm Calm - N/A   Clear
7:35 AM 42.8 °F 33.8 °F 70% 29.96 in 10.0 mi Calm Calm - N/A   Clear
7:55 AM 44.6 °F 33.8 °F 66% 29.97 in 10.0 mi Calm Calm - N/A   Clear
8:15 AM 50.0 °F 35.6 °F 58% 29.98 in 10.0 mi Calm Calm - N/A   Clear
8:35 AM 53.6 °F 35.6 °F 51% 29.98 in 10.0 mi Calm Calm - N/A   Clear
8:55 AM 55.4 °F 33.8 °F 44% 29.98 in 10.0 mi Calm Calm - N/A   Clear
9:15 AM 60.8 °F 32.0 °F 34% 29.98 in 10.0 mi Calm Calm - N/A   Clear
9:35 AM 64.4 °F 30.2 °F 28% 29.98 in 10.0 mi Calm Calm - N/A   Clear
9:55 AM 68.0 °F 28.4 °F 23% 29.98 in 10.0 mi Calm Calm - N/A   Clear
10:15 AM 69.8 °F 26.6 °F 20% 29.98 in 10.0 mi NNW 3.5 mph - N/A   Clear
10:35 AM 71.6 °F 28.4 °F 20% 29.97 in 10.0 mi NW 3.5 mph - N/A   Clear
10:55 AM 73.4 °F 24.8 °F 16% 29.97 in 10.0 mi Calm Calm - N/A   Clear
11:15 AM 75.2 °F 24.8 °F 15% 29.96 in 10.0 mi Calm Calm - N/A   Clear
11:35 AM 77.0 °F 23.0 °F 13% 29.95 in 10.0 mi Calm Calm - N/A   Clear
11:55 AM 77.0 °F 24.8 °F 14% 29.95 in 10.0 mi Calm Calm - N/A   Clear
12:15 PM 78.8 °F 24.8 °F 14% 29.94 in 10.0 mi Calm Calm - N/A   Clear
12:35 PM 78.8 °F 28.4 °F 16% 29.94 in 10.0 mi WNW 4.6 mph - N/A   Clear
12:55 PM 80.6 °F 28.4 °F 15% 29.93 in 10.0 mi West 5.8 mph - N/A   Clear
1:15 PM 82.4 °F 28.4 °F 14% 29.92 in 10.0 mi SW 4.6 mph - N/A   Clear
1:35 PM 82.4 °F 28.4 °F 14% 29.91 in 10.0 mi SW 5.8 mph - N/A   Clear
1:55 PM 82.4 °F 30.2 °F 15% 29.90 in 10.0 mi West 6.9 mph - N/A   Clear
2:15 PM 82.4 °F 30.2 °F 15% 29.89 in 10.0 mi West 5.8 mph - N/A   Clear
2:35 PM 84.2 °F 28.4 °F 13% 29.89 in 10.0 mi WNW 5.8 mph - N/A   Clear
2:55 PM 84.2 °F 28.4 °F 13% 29.89 in 10.0 mi NW 4.6 mph - N/A   Clear
3:15 PM 82.4 °F 26.6 °F 13% 29.88 in 10.0 mi NW 5.8 mph - N/A   Clear
3:35 PM 84.2 °F 23.0 °F 11% 29.88 in 10.0 mi WNW 4.6 mph - N/A   Clear
3:55 PM 84.2 °F 26.6 °F 12% 29.87 in 10.0 mi WNW 3.5 mph - N/A   Clear
4:15 PM 82.4 °F 26.6 °F 13% 29.86 in 10.0 mi Calm Calm - N/A   Clear
4:35 PM 84.2 °F 23.0 °F 11% 29.86 in 10.0 mi NW 4.6 mph - N/A   Clear
4:55 PM 82.4 °F 23.0 °F 11% 29.85 in 10.0 mi Calm Calm - N/A   Clear
5:15 PM 82.4 °F 23.0 °F 11% 29.85 in 10.0 mi WNW 3.5 mph - N/A   Clear
5:35 PM 80.6 °F 23.0 °F 12% 29.84 in 10.0 mi Calm Calm - N/A   Clear
5:55 PM 80.6 °F 23.0 °F 12% 29.84 in 10.0 mi Calm Calm - N/A   Clear
6:15 PM 78.8 °F 26.6 °F 15% 29.84 in 10.0 mi Calm Calm - N/A   Clear
6:35 PM 77.0 °F 26.6 °F 16% 29.83 in 10.0 mi Calm Calm - N/A   Clear
6:55 PM 77.0 °F 26.6 °F 16% 29.83 in 10.0 mi Calm Calm - N/A   Clear
7:15 PM 73.4 °F 28.4 °F 19% 29.84 in 10.0 mi Calm Calm - N/A   Clear
7:35 PM 68.0 °F 32.0 °F 26% 29.84 in 10.0 mi Calm Calm - N/A   Clear
7:55 PM 64.4 °F 33.8 °F 32% 29.84 in 10.0 mi ENE 6.9 mph - N/A   Clear
8:15 PM 62.6 °F 35.6 °F 37% 29.84 in 10.0 mi East 5.8 mph - N/A   Clear
8:35 PM 60.8 °F 37.4 °F 42% 29.85 in 10.0 mi East 4.6 mph - N/A   Clear
8:55 PM 59.0 °F 37.4 °F 45% 29.85 in 10.0 mi ENE 4.6 mph - N/A   Clear
9:15 PM 57.2 °F 37.4 °F 48% 29.85 in 10.0 mi East 5.8 mph - N/A   Clear
9:35 PM 57.2 °F 37.4 °F 48% 29.85 in 10.0 mi ENE 5.8 mph - N/A   Clear
9:55 PM 55.4 °F 35.6 °F 47% 29.85 in 10.0 mi ENE 4.6 mph - N/A   Clear
10:15 PM 55.4 °F 35.6 °F 47% 29.85 in 10.0 mi ENE 4.6 mph - N/A   Clear
10:35 PM 55.4 °F 35.6 °F 47% 29.85 in 10.0 mi NE 3.5 mph - N/A   Clear
10:55 PM 53.6 °F 35.6 °F 51% 29.86 in 10.0 mi NNE 3.5 mph - N/A   Clear
11:15 PM 55.4 °F 33.8 °F 44% 29.85 in 10.0 mi ENE 4.6 mph - N/A   Clear
11:35 PM 55.4 °F 33.8 °F 44% 29.86 in 10.0 mi NE 3.5 mph - N/A   Clear
11:55 PM 55.4 °F 32.0 °F 41% 29.85 in 10.0 mi Calm Calm - N/A   Clear